When you browse on this site, cookies collect data to enhance your experience and personalize the content and advertising you see.
Visit our Privacy Policy to learn more. By continuing to use the site, you agree to this use of cookies and data.
  • In Czech Republic
  • List of Countries
  • For 7 days
  • Water Temperature
  • Weather Map
  • Weather Widgets
  • user-avatar
    Login

    Hourly Weather Solden

    Today, 8 December, Sunday

    Time Temperature Precipitation Wind Pressure Humidity
    00:00 -7°C° 0 mm 1 mps 580 mmHg 67%
    01:00 -7°C° 0 mm 1 mps 580 mmHg 64%
    02:00 -7°C° 0 mm 1 mps 579 mmHg 62%
    03:00 -7°C° 0 mm 1 mps 579 mmHg 59%
    04:00 -7°C° 0 mm 1 mps 579 mmHg 57%
    05:00 -7°C° 0 mm 1 mps 579 mmHg 55%
    06:00 -7°C° 0 mm 1 mps 579 mmHg 54%
    07:00 -7°C° 0 mm 1 mps 579 mmHg 53%
    08:00 -6°C° 0 mm 1 mps 579 mmHg 54%
    09:00 -4°C° 0 mm 1 mps 580 mmHg 56%
    10:00 -3°C° 0 mm 0 mps 580 mmHg 58%
    11:00 -3°C° 0 mm 0 mps 580 mmHg 62%
    12:00 -1°C° 0 mm 1 mps 580 mmHg 66%
    13:00 0°C° 0 mm 1 mps 580 mmHg 70%
    14:00 -2°C° 0 mm 1 mps 579 mmHg 72%
    15:00 -3°C° 0 mm 1 mps 578 mmHg 73%
    16:00 -6°C° 0 mm 0 mps 577 mmHg 74%
    17:00 -6°C° 0 mm 1 mps 577 mmHg 72%
    18:00 -7°C° 0 mm 1 mps 577 mmHg 69%
    19:00 -7°C° 0 mm 1 mps 576 mmHg 67%
    20:00 -8°C° 0 mm 1 mps 576 mmHg 68%
    21:00 -8°C° 0 mm 1 mps 576 mmHg 69%
    22:00 -8°C° 0 mm 1 mps 575 mmHg 70%
    23:00 -8°C° 0 mm 1 mps 575 mmHg 71%

    Tomorrow, 9 December, Monday

    Time Temperature Precipitation Wind Pressure Humidity
    00:00 -8°C° 0 mm 1 mps 575 mmHg 72%
    01:00 -8°C° 0 mm 1 mps 574 mmHg 73%
    02:00 -8°C° 0 mm 1 mps 574 mmHg 74%
    03:00 -8°C° 0 mm 1 mps 573 mmHg 76%
    04:00 -8°C° 0 mm 1 mps 573 mmHg 78%
    05:00 -8°C° 0 mm 1 mps 573 mmHg 79%
    06:00 -9°C° 0 mm 1 mps 573 mmHg 80%
    07:00 -9°C° 0 mm 1 mps 572 mmHg 81%
    08:00 -8°C° 0 mm 1 mps 573 mmHg 82%
    09:00 -8°C° 0 mm 1 mps 573 mmHg 83%
    10:00 -7°C° 0 mm 1 mps 573 mmHg 85%
    11:00 -6°C° 0.1 mm 1 mps 573 mmHg 82%
    12:00 -4°C° 0.1 mm 1 mps 574 mmHg 79%
    13:00 -3°C° 0.1 mm 1 mps 574 mmHg 77%
    14:00 -4°C° 0 mm 1 mps 573 mmHg 79%
    15:00 -6°C° 0 mm 1 mps 573 mmHg 81%
    16:00 -7°C° 0 mm 1 mps 572 mmHg 83%
    17:00 -8°C° 0 mm 2 mps 573 mmHg 82%
    18:00 -9°C° 0 mm 2 mps 573 mmHg 81%
    19:00 -9°C° 0 mm 2 mps 573 mmHg 80%
    20:00 -9°C° 0 mm 2 mps 574 mmHg 79%
    21:00 -10°C° 0 mm 2 mps 574 mmHg 79%
    22:00 -10°C° 0 mm 2 mps 574 mmHg 79%
    23:00 -12°C° 0.1 mm 3 mps 575 mmHg 80%

    Day after tomorrow, 10 December, Tuesday

    Time Temperature Precipitation Wind Pressure Humidity
    00:00 -13°C° 0.1 mm 3 mps 575 mmHg 81%
    01:00 -13°C° 0.1 mm 3 mps 575 mmHg 83%
    02:00 -13°C° 0.1 mm 3 mps 576 mmHg 83%
    03:00 -13°C° 0.1 mm 3 mps 576 mmHg 83%
    04:00 -14°C° 0.1 mm 3 mps 576 mmHg 83%
    05:00 -14°C° 0 mm 3 mps 577 mmHg 82%
    06:00 -15°C° 0 mm 3 mps 577 mmHg 82%
    07:00 -15°C° 0 mm 3 mps 577 mmHg 81%
    08:00 -14°C° 0 mm 3 mps 578 mmHg 80%
    09:00 -14°C° 0 mm 3 mps 579 mmHg 78%
    10:00 -13°C° 0 mm 3 mps 580 mmHg 76%
    11:00 -12°C° 0 mm 3 mps 580 mmHg 73%
    12:00 -10°C° 0 mm 3 mps 581 mmHg 69%
    13:00 -9°C° 0 mm 3 mps 581 mmHg 66%
    14:00 -10°C° 0 mm 3 mps 580 mmHg 68%
    15:00 -13°C° 0 mm 3 mps 580 mmHg 70%
    16:00 -13°C° 0 mm 2 mps 579 mmHg 72%
    17:00 -13°C° 0 mm 2 mps 579 mmHg 65%
    18:00 -14°C° 0 mm 2 mps 579 mmHg 58%
    19:00 -14°C° 0 mm 2 mps 579 mmHg 52%
    20:00 -14°C° 0 mm 2 mps 579 mmHg 48%
    21:00 -14°C° 0 mm 2 mps 579 mmHg 45%
    22:00 -12°C° 0 mm 1 mps 579 mmHg 41%
    23:00 -12°C° 0 mm 1 mps 579 mmHg 39%

    11 December, Wednesday

    Time Temperature Precipitation Wind Pressure Humidity
    00:00 -12°C° 0 mm 1 mps 578 mmHg 38%
    01:00 -11°C° 0 mm 1 mps 578 mmHg 36%
    02:00 -11°C° 0 mm 1 mps 578 mmHg 35%
    03:00 -11°C° 0 mm 1 mps 578 mmHg 34%
    04:00 -11°C° 0 mm 1 mps 577 mmHg 33%
    05:00 -10°C° 0 mm 1 mps 577 mmHg 33%
    06:00 -10°C° 0 mm 1 mps 577 mmHg 32%
    07:00 -10°C° 0 mm 1 mps 577 mmHg 32%
    08:00 -9°C° 0 mm 1 mps 578 mmHg 34%
    09:00 -7°C° 0 mm 0 mps 578 mmHg 37%
    10:00 -6°C° 0 mm 0 mps 579 mmHg 39%
    11:00 -5°C° 0 mm 0 mps 579 mmHg 44%
    12:00 -4°C° 0 mm 0 mps 579 mmHg 48%
    13:00 -3°C° 0 mm 0 mps 578 mmHg 52%
    14:00 -5°C° 0 mm 0 mps 577 mmHg 52%
    15:00 -6°C° 0 mm 0 mps 576 mmHg 51%
    16:00 -8°C° 0 mm 0 mps 575 mmHg 51%
    17:00 -8°C° 0 mm 0 mps 575 mmHg 50%
    18:00 -8°C° 0 mm 0 mps 575 mmHg 49%
    19:00 -8°C° 0 mm 0 mps 575 mmHg 48%
    20:00 -8°C° 0 mm 0 mps 575 mmHg 50%
    21:00 -8°C° 0 mm 0 mps 575 mmHg 51%
    22:00 -8°C° 0 mm 0 mps 575 mmHg 53%
    23:00 -8°C° 0.2 mm 0 mps 575 mmHg 55%

    12 December, Thursday

    Time Temperature Precipitation Wind Pressure Humidity
    00:00 -8°C° 0.2 mm 0 mps 574 mmHg 56%
    01:00 -9°C° 0.2 mm 0 mps 574 mmHg 58%
    02:00 -9°C° 0.5 mm 0 mps 573 mmHg 62%
    03:00 -9°C° 0.5 mm 0 mps 573 mmHg 66%
    04:00 -9°C° 0.5 mm 0 mps 573 mmHg 69%
    05:00 -9°C° 0.2 mm 1 mps 573 mmHg 74%
    06:00 -10°C° 0.2 mm 1 mps 573 mmHg 79%
    07:00 -12°C° 0.2 mm 2 mps 573 mmHg 84%
    08:00 -10°C° 0.1 mm 2 mps 573 mmHg 82%
    09:00 -10°C° 0.1 mm 2 mps 574 mmHg 81%
    10:00 -9°C° 0.1 mm 2 mps 574 mmHg 80%
    11:00 -8°C° 0.1 mm 2 mps 574 mmHg 77%
    12:00 -8°C° 0.1 mm 2 mps 575 mmHg 73%
    13:00 -7°C° 0.1 mm 2 mps 575 mmHg 70%
    14:00 -9°C° 0 mm 2 mps 574 mmHg 73%
    15:00 -10°C° 0 mm 2 mps 574 mmHg 77%
    16:00 -12°C° 0 mm 2 mps 573 mmHg 80%
    17:00 -13°C° 0 mm 2 mps 573 mmHg 79%
    18:00 -14°C° 0 mm 2 mps 573 mmHg 77%
    19:00 -15°C° 0 mm 2 mps 572 mmHg 76%
    20:00 -16°C° 0 mm 2 mps 572 mmHg 72%
    21:00 -16°C° 0 mm 2 mps 572 mmHg 68%
    22:00 -16°C° 0 mm 2 mps 572 mmHg 64%
    23:00 -14°C° 0 mm 1 mps 572 mmHg 62%

    13 December, Friday

    Time Temperature Precipitation Wind Pressure Humidity
    00:00 -14°C° 0 mm 1 mps 571 mmHg 60%
    01:00 -13°C° 0 mm 1 mps 571 mmHg 58%
    02:00 -13°C° 0 mm 1 mps 571 mmHg 60%
    03:00 -12°C° 0 mm 1 mps 571 mmHg 61%
    04:00 -12°C° 0 mm 1 mps 570 mmHg 63%
    05:00 -12°C° 0.1 mm 1 mps 570 mmHg 67%
    06:00 -12°C° 0.1 mm 1 mps 570 mmHg 71%
    07:00 -11°C° 0.1 mm 1 mps 570 mmHg 75%
    08:00 -11°C° 0.2 mm 1 mps 570 mmHg 76%
    09:00 -10°C° 0.2 mm 1 mps 570 mmHg 77%
    10:00 -10°C° 0.2 mm 1 mps 570 mmHg 78%
    11:00 -9°C° 0.1 mm 1 mps 570 mmHg 77%
    12:00 -8°C° 0.1 mm 1 mps 569 mmHg 77%
    13:00 -8°C° 0.1 mm 1 mps 569 mmHg 76%
    14:00 -8°C° 0.2 mm 1 mps 569 mmHg 79%
    15:00 -9°C° 0.2 mm 1 mps 568 mmHg 83%
    16:00 -9°C° 0.2 mm 1 mps 568 mmHg 86%
    17:00 -9°C° 0.5 mm 1 mps 568 mmHg 87%
    18:00 -8°C° 0.5 mm 1 mps 569 mmHg 89%
    19:00 -8°C° 0.5 mm 1 mps 569 mmHg 91%
    20:00 -8°C° 0.6 mm 1 mps 569 mmHg 91%
    21:00 -8°C° 0.6 mm 1 mps 569 mmHg 92%
    22:00 -7°C° 0.6 mm 1 mps 570 mmHg 93%
    23:00 -7°C° 0.7 mm 1 mps 570 mmHg 94%
    Show more